Flag for Tuvalu Weather past 2 weeks in Funafuti, Tuvalu

Now
86 °F

Scattered showers. Mostly cloudy.


Feels Like: 97 °F
Forecast: 82 / 89 °F
Wind: 13 mph from Southeast

Location: Funafuti

Current Time: Sep 2, 2015 at 9:25:30 PM

Latest Report: Sep 2, 2015 at 9:00 PM


Visibility: N/A

Pressure: 29.89 "Hg

Humidity: 75%

Dew point: 77 °F

Location of FunafutiLocation

Historic Weather in Funafuti — Graph

°F

Funafuti temperature yesterday

Maximum temperature yesterday: 84 °F (at 8:00 AM)
Minimum temperature yesterday: 79 °F (at 9:00 AM)
Average temperature yesterday: 82 °F

Past Weeks' High & Low Weather Summary

 TemperatureHumidityPressure
High90 °F (Aug 20, 11:00 AM)100% (Aug 19, 9:00 AM)29.92 "Hg (Aug 19, 9:00 AM)
Low36 °F (Aug 28, 10:00 AM)59% (Aug 31, 11:00 AM)29.77 "Hg (Aug 23, 3:00 PM)
Average84 °F78%29.84 "Hg
* Reported Aug 18 8:00 PM — Sep 2 8:00 PM, Funafuti, Weather by CustomWeather, © 2015

Note: Actual official high and low records may vary slightly from our data, if they occured in-between our weather recording intervals... More about our weather records

Advertising

Funafuti weather history for previous 24 hours

 ConditionsComfort  
Time TempWeatherWind HumidityBarometerVisibility
8:00 PM
Wed, Sep 2
84 °FScattered showers. Passing clouds.9 mph84%29.86 "HgN/A
7:00 PM82 °FScattered showers. Overcast.9 mph89%29.86 "HgN/A
6:00 PM84 °FScattered showers. Broken clouds.7 mph89%29.83 "HgN/A
3:00 PM88 °FBroken clouds.12 mph75%29.83 "HgN/A
2:00 PM88 °FBroken clouds.13 mph75%29.83 "HgN/A
1:00 PM90 °FBroken clouds.12 mph71%29.83 "HgN/A
12:00 PM88 °FBroken clouds.16 mph75%29.86 "HgN/A
11:00 AM86 °FBroken clouds.13 mph79%29.89 "HgN/A
9:00 AM84 °FScattered showers. More clouds than sun.14 mph84%29.89 "HgN/A
8:00 AM82 °FRain showers. More clouds than sun.13 mph89%29.89 "HgN/A
7:00 AM84 °FScattered showers. More clouds than sun.14 mph84%29.86 "HgN/A
6:00 AM82 °FScattered showers. Mostly cloudy.17 mph89%29.83 "HgN/A
5:00 AM82 °FScattered showers. Mostly cloudy.16 mph89%29.83 "HgN/A
4:00 AM82 °FScattered showers. Mostly cloudy.13 mph89%29.83 "HgN/A
3:00 AM82 °FScattered showers. Overcast.9 mph84%29.83 "HgN/A
2:00 AM82 °FScattered showers. Overcast.9 mph84%29.83 "HgN/A
1:00 AM82 °FScattered showers. Overcast.9 mph84%29.86 "HgN/A
12:00 AM82 °FScattered showers. Overcast.9 mph84%29.86 "HgN/A
11:00 PM
Tue, Sep 1
82 °FScattered showers. Mostly cloudy.9 mph84%29.86 "HgN/A
10:00 PM82 °FScattered showers. Mostly cloudy.14 mph84%29.89 "HgN/A
9:00 PM82 °FScattered showers. Overcast.N/A84%29.86 "HgN/A
Weather by CustomWeather, © 2015

See weather overviewHow to use our weather pages